Location: Newark
(53.0833°N, 25.3167°E)
Time: 10:01:16
(UTC+00:00)

Envisat - Visible Passes

Search period start: 30 September 2020 00:00
Search period end: 10 October 2020 00:00
Orbit: 764 x 766 km, 98.1° (Epoch: 29 September)

Date Brightness Start Highest point End Pass type
(mag) Time Alt. Az. Time Alt. Az. Time Alt. Az.
30 Sep 6.1 16:43:56 10° SW 16:47:38 20° W 16:51:21 10° NW visible
01 Oct 6.2 03:06:38 10° NE 03:09:53 17° E 03:13:06 10° SE visible
02 Oct 6.5 17:11:19 10° WSW 17:13:27 13° W 17:15:36 10° WNW visible
03 Oct 5.6 03:31:23 10° NE 03:35:38 26° E 03:39:52 10° SSE visible
03 Oct 5.8 16:32:02 10° SW 16:36:08 24° W 16:40:15 10° NW visible
04 Oct 6.3 02:55:48 10° NE 02:58:20 14° E 03:00:52 10° ESE visible
05 Oct 6.3 16:58:56 10° WSW 17:01:54 15° W 17:04:53 10° NW visible
06 Oct 5.9 03:20:15 10° NE 03:24:09 22° E 03:28:01 10° SE visible
06 Oct 5.4 16:20:15 10° SSW 16:24:39 29° W 16:29:05 10° NNW visible
07 Oct 6.6 02:45:24 10° ENE 02:46:47 11° E 02:48:10 10° E visible
08 Oct 5.1 03:45:13 10° NNE 03:49:50 34° E 03:54:26 10° SSE visible
08 Oct 6.1 16:46:51 10° SW 16:50:23 19° W 16:53:56 10° NW visible
09 Oct 6.1 03:09:11 10° NE 03:12:38 18° E 03:16:03 10° SE visible
09 Oct 5.0 16:08:34 10° SSW 16:13:11 35° W 16:17:52 10° NNW visible
